This is the latest recevied weather packets stored in our database for station/object KB3GVC-13. If no packets are shown the sender has not sent any weather packets the latest 10 day(s).
| Time | Temp. | Humidity | Pressure | Rain* | Wind** | Luminosity | Snow |
|---|---|---|---|---|---|---|---|
| 1777457095 | 11.67° C | 62% | 1016.8 hPa | 0 mm | - | - | - |
| 1777456792 | 11.67° C | 63% | 1016.7 hPa | 0 mm | - | - | - |
| 1777456491 | 11.67° C | 63% | 1017.1 hPa | 0 mm | - | - | - |
| 1777456187 | 11.67° C | 63% | 1016.9 hPa | 0 mm | - | - | - |
| 1777455883 | 11.11° C | 64% | 1016.9 hPa | 0 mm | - | - | - |
| 1777455580 | 11.67° C | 64% | 1016.9 hPa | 0 mm | - | - | - |
| 1777455277 | 11.67° C | 63% | 1017.2 hPa | 0 mm | - | - | - |
| 1777454973 | 11.67° C | 62% | 1017.2 hPa | 0 mm | - | - | - |
| 1777454671 | 11.11° C | 62% | 1017.2 hPa | 0 mm | - | - | - |
| 1777454366 | 11.67° C | 63% | 1017.1 hPa | 0 mm | - | - | - |
| 1777454063 | 11.67° C | 61% | 1017 hPa | 0 mm | - | - | - |
| 1777453760 | 11.67° C | 60% | 1017.2 hPa | 0 mm | - | - | - |
| 1777453457 | 11.67° C | 60% | 1017.1 hPa | 0 mm | - | - | - |
| 1777453154 | 11.67° C | 59% | 1017.1 hPa | 0 mm | - | - | - |
| 1777452851 | 11.67° C | 60% | 1017 hPa | 0 mm | - | - | - |
| 1777452548 | 11.67° C | 60% | 1016.9 hPa | 0 mm | - | - | - |
| 1777452243 | 11.67° C | 61% | 1017.2 hPa | 0 mm | - | - | - |
| 1777451943 | 11.67° C | 59% | 1017.2 hPa | 0 mm | - | - | - |
| 1777451640 | 11.67° C | 61% | 1016.8 hPa | 0 mm | - | - | - |
| 1777451335 | 11.11° C | 64% | 1017 hPa | 0 mm | - | - | - |
| 1777451031 | 11.11° C | 66% | 1017 hPa | 0 mm | - | - | - |
| 1777450728 | 11.11° C | 67% | 1016.8 hPa | 0 mm | - | - | - |
| 1777450423 | 11.11° C | 67% | 1017.1 hPa | 0 mm | - | - | - |
| 1777450120 | 11.11° C | 68% | 1017.1 hPa | 0 mm | - | - | - |
| 1777449816 | 11.11° C | 68% | 1017 hPa | 0 mm | - | - | - |
* Rain latest hour (hover to see other rain measurements)
** Current wind speed in m/s (hover to see current wind gust speed)